Simultaneous Nadir Overpasses (SNOs) Predictions

Prediction of SNOs between AQUA and NOAA-19 Satellite Orbit:

Table of predicted SNOs for the next 14.0 days since TLE Epoch: 2/15/2019
Index Date (AQUA) Time (AQUA) Lat,Lon (AQUA) SZA (AQUA ) Date (NOAA-19) Time (NOAA-19) Lat,Lon (NOAA-19) SZA (NOAA-19 ) Distance(km) Time Diff (sec)
1 02/17/2019 21:13:28 -80.53, 6.14 85.61 02/17/2019 21:13:13 -80.55, 6.04 85.58 3.13 15
2 02/17/2019 22:02:55 80.55, 173.57 94.42 02/17/2019 22:04:07 80.56, 173.59 94.40 1.69 72
3 02/20/2019 02:47:13 80.54, 102.61 93.62 02/20/2019 02:46:36 80.55, 102.75 93.63 2.84 37
4 02/20/2019 03:36:41 -80.57, -90.12 86.34 02/20/2019 03:37:42 -80.55, -90.00 86.39 3.21 61
5 02/22/2019 08:20:58 -80.53,-160.76 87.21 02/22/2019 08:20:11 -80.53,-160.88 87.17 2.41 47
6 02/22/2019 09:10:25 80.56, 6.61 92.83 02/22/2019 09:11:05 80.55, 6.72 92.80 2.06 40
7 02/24/2019 13:54:42 80.52, -64.07 91.95 02/24/2019 13:53:34 80.54, -64.14 92.00 2.16 68
8 02/24/2019 14:44:10 -80.55, 103.25 88.01 02/24/2019 14:44:39 -80.55, 103.37 88.03 2.22 29
9 02/26/2019 20:17:54 80.54,-160.11 91.15 02/26/2019 20:18:03 80.54,-160.17 91.15 1.33 9




NCC Satellite Simultaneous Nadir Overpasses (SNOs) Prediction Service
